Regional Weather Roundup
Issued by NWS

Home | Current Version | Previous Version | Graphics & Text | Print | Product List | Glossary On
Versions: 1 2 3 4 5 6 7 8 9 10 11 12 13 14 15 16 17 18 19 20 21 22 23 24 25 26 27 28 29 30 31 32 33 34 35 36 37 38 39 40 41 42 43 44 45 46 47 48 49 50
000
ASUS44 KMEG 270810
RWRTN
TENNESSEE HOURLY STATE WEATHER ROUNDUP
NATIONAL WEATHER SERVICE MEMPHIS TN
300 AM CDT THU JUL 27 2017

TNZ002-004-019-021-049-052-054-088>092-270900-
WEST TENNESSEE

CITY           SKY/WX    TMP DP  RH WIND       PRES   REMARKS
MEMPHIS INTL   PTCLDY    80  74  81 SW8       30.00S
NWS MEMPHIS      N/A     77 N/A N/A MISG        N/A
JACKSON        PTCLDY    76  74  93 S6        30.00F
SOMERVILLE       N/A     77  72  83 S3        30.00S
COVINGTON      CLEAR     75  73  94 CALM      29.98F
UNION CITY     CLEAR     77  73  88 S5        29.97S
BOLIVAR        CLEAR     73  72  94 CALM      30.01S
PARIS          PTCLDY    73  72  94 CALM      29.98F
HUNTINGDON     PTCLDY    77  73  88 CALM      29.98F
LEXINGTON      CLEAR     73  73 100 CALM      30.00F
SAVANNAH       PTCLDY    73  73 100 CALM      30.01S
$$

TNZ008-025-027-028-033-062-065-066-270900-
NORTH MIDDLE TENNESSEE

CITY           SKY/WX    TMP DP  RH WIND       PRES   REMARKS
NASHVILLE      PTCLDY    79  74  84 S3        30.01F
PORTLAND         N/A     77  75  94 S5        29.99F
CLARKSVILLE    CLOUDY    79  75  87 SW6       29.98F
SMYRNA         PTCLDY    75  73  93 SE5       30.01F
COOKEVILLE     PTCLDY    73  72  94 CALM      30.03F FOG
GALLATIN       PTCLDY    77  75  94 CALM      30.02F FOG
CROSSVILLE     PTCLDY    72  69  90 SW3       30.11S
$$

TNZ061-075-076-078-094-096-097-270900-
SOUTH MIDDLE TENNESSEE

CITY           SKY/WX    TMP DP  RH WIND       PRES   REMARKS
FAYETTEVILLE   CLEAR     77  73  88 CALM      30.04F
TULLAHOMA      CLEAR     73  72  94 CALM      30.06F
MCMINNVILLE    CLEAR     73  73 100 CALM      30.05F
COLUMBIA       MOCLDY    75  75 100 CALM      30.00F
SHELBYVILLE    CLEAR     73  73 100 CALM      30.03F FOG
$$

TNZ017-018-042-046-047-270900-
NORTHEAST TENNESSEE

CITY           SKY/WX    TMP DP  RH WIND       PRES   REMARKS
TRI CITIES     CLOUDY    72  69  90 CALM      30.08F
ELIZABETHTON   CLOUDY    72  66  83 CALM      30.09S
$$

TNZ012-013-036-069-073-074-270900-
CENTRAL EAST TENNESSEE

CITY           SKY/WX    TMP DP  RH WIND       PRES   REMARKS
KNOXVILLE      MOCLDY    77  70  79 CALM      30.04S
OAK RIDGE      CLEAR     77  72  84 CALM      30.06S
GATLINBURG     PTCLDY    72  66  83 CALM      30.04S
MORRISTOWN     MOCLDY    73  70  88 CALM      30.05S
JACKSBORO      PTCLDY    72  70  94 CALM      30.09R FOG
$$

TNZ083-085-099-270900-
SOUTHEAST TENNESSEE

CITY           SKY/WX    TMP DP  RH WIND       PRES   REMARKS
CHATTANOOGA    PTCLDY    80  71  74 S3        30.05F
DAYTON         MOSUNNY   79  73  83 SW6       30.04S
$$

SKY/WX REPORTED AS FAIR MEANS FEW OR NO CLOUDS BELOW
12 THOUSAND FEET.





USA.gov is the U.S. government's official web portal to all federal, state and local government web resources and services.